Weather History for Auburn, IN

Change the Weather History Date:

Friday, January 25, 2013

  Actual Average (KFWA) Record (KFWA)
Temperature  
Mean Temperature 22 °F 25 °F  
Max Temperature 24 °F 32 °F 69 °F (1950)
Min Temperature 19 °F 17 °F -9 °F (1961)
Degree Days  
Heating Degree Days 44 40  
Month to date heating degree days 999  
Since 1 July heating degree days 3327  
Cooling Degree Days 0 0  
Month to date cooling degree days 0  
Year to date cooling degree days 0  
Moisture  
Dew Point 15 °F    
Average Humidity 75    
Maximum Humidity 86    
Minimum Humidity 54    
Precipitation  
Precipitation 0.00 in 0.07 in 0.91 in (1950)
Month to date precipitation 1.85  
Year to date precipitation 1.85  
Snow  
Snow 0.00 in 0.30 in 5.40 in (1978)
Month to date snowfall 8.1  
Since 1 July snowfall 18.7  
Snow Depth -    
Sea Level Pressure  
Sea Level Pressure 30.14 in    
Wind  
Wind Speed 4 mph (South)    
Max Wind Speed 8 mph    
Max Gust Speed 16 mph    
Visibility 7 miles    
Events Snow    
T = Trace of Precipitation, MM = Missing Value Source: NWS Daily Summary

Daily Weather History Graph

Daily Weather History Graph

Search for Another Location

Airport:

Trip Planner

Search our weather history database for the weather conditions in past years. The results will help you decide how hot, cold, wet, or windy it might be!

Date:

Astronomy

Jan. 25, 2013 Rise Set
Actual Time 7:57 AM EST 5:48 PM EST
Civil Twilight 7:27 AM EST 6:18 PM EST
Nautical Twilight 6:54 AM EST 6:51 PM EST
Astronomical Twilight 6:21 AM EST 7:24 PM EST
Moon 4:44 PM EST (1/25) 6:36 AM EST (1/25)
Length of Visible Light 10h 50m
Length of Day
9h 50m
Waxing Gibbous, 98% of the Moon is Illuminated
Jan 25
Waxing Gibbous
Jan 26
Full
Feb 3
Last Quarter
Feb 10
New
Feb 17
First Quarter

Hourly Weather History & Observations

Time (EST) Temp. Windchill Dew Point Humidity Pressure Visibility Wind Dir Wind Speed Gust Speed Precip Events Conditions
12:15 AM 19.4 °F - 5.0 °F 54% 30.44 in 10.0 mi Calm Calm - N/A   Overcast
12:35 AM 19.4 °F 14.3 °F 5.0 °F 54% 30.42 in 10.0 mi ESE 3.5 mph - N/A   Overcast
12:55 AM 19.4 °F 12.8 °F 6.8 °F 58% 30.41 in 10.0 mi East 4.6 mph - N/A   Mostly Cloudy
1:15 AM 19.4 °F 12.8 °F 8.6 °F 63% 30.39 in 10.0 mi ESE 4.6 mph - N/A   Scattered Clouds
1:35 AM 19.4 °F 11.5 °F 8.6 °F 63% 30.39 in 10.0 mi ESE 5.8 mph - N/A   Mostly Cloudy
1:55 AM 19.4 °F 14.3 °F 8.6 °F 63% 30.39 in 10.0 mi East 3.5 mph - N/A   Overcast
2:15 AM 19.4 °F 12.8 °F 10.4 °F 68% 30.38 in 10.0 mi East 4.6 mph - N/A   Overcast
2:35 AM 19.4 °F 14.3 °F 10.4 °F 68% 30.38 in 10.0 mi ESE 3.5 mph - N/A   Overcast
2:55 AM 19.4 °F 14.3 °F 10.4 °F 68% 30.38 in 10.0 mi ESE 3.5 mph - N/A   Overcast
3:15 AM 19.4 °F 12.8 °F 10.4 °F 68% 30.37 in 10.0 mi ESE 4.6 mph - N/A   Overcast
3:35 AM 19.4 °F 9.5 °F 10.4 °F 68% 30.34 in 10.0 mi ESE 8.1 mph - N/A   Mostly Cloudy
3:55 AM 19.4 °F 11.5 °F 10.4 °F 68% 30.33 in 10.0 mi ESE 5.8 mph - N/A   Overcast
4:15 AM 19.4 °F 11.5 °F 10.4 °F 68% 30.31 in 10.0 mi SE 5.8 mph - N/A   Overcast
4:35 AM 19.4 °F 10.4 °F 10.4 °F 68% 30.28 in 10.0 mi ESE 6.9 mph - N/A   Overcast
4:55 AM 19.4 °F 10.4 °F 10.4 °F 68% 30.27 in 10.0 mi SE 6.9 mph - N/A   Overcast
5:15 AM 19.4 °F 14.3 °F 10.4 °F 68% 30.26 in 10.0 mi ESE 3.5 mph - N/A   Overcast
5:35 AM 19.4 °F 12.8 °F 10.4 °F 68% 30.25 in 10.0 mi SE 4.6 mph - N/A   Overcast
5:55 AM 19.4 °F 12.8 °F 10.4 °F 68% 30.23 in 10.0 mi ESE 4.6 mph - N/A   Overcast
6:15 AM 19.4 °F 14.3 °F 10.4 °F 68% 30.21 in 10.0 mi ESE 3.5 mph - N/A   Overcast
6:35 AM 19.4 °F 11.5 °F 10.4 °F 68% 30.20 in 10.0 mi SE 5.8 mph - N/A   Overcast
6:55 AM 19.4 °F 11.5 °F 10.4 °F 68% 30.20 in 10.0 mi ESE 5.8 mph - N/A   Overcast
7:15 AM 19.4 °F 12.8 °F 10.4 °F 68% 30.20 in 10.0 mi SE 4.6 mph - N/A   Overcast
7:35 AM 19.4 °F 11.5 °F 8.6 °F 63% 30.18 in 10.0 mi ESE 5.8 mph - N/A   Overcast
7:55 AM 19.4 °F 14.3 °F 8.6 °F 63% 30.17 in 10.0 mi ESE 3.5 mph - N/A   Overcast
8:15 AM 19.4 °F 14.3 °F 8.6 °F 63% 30.17 in 10.0 mi SE 3.5 mph - N/A   Overcast
8:35 AM 19.4 °F 14.3 °F 8.6 °F 63% 30.16 in 10.0 mi ESE 3.5 mph - N/A   Overcast
8:55 AM 19.4 °F 14.3 °F 10.4 °F 68% 30.17 in 3.0 mi SE 3.5 mph - N/A Snow Light Snow
9:15 AM 19.4 °F 14.3 °F 12.2 °F 74% 30.16 in 1.0 mi SSE 3.5 mph - N/A Snow Light Snow
9:35 AM 19.4 °F 14.3 °F 14.0 °F 80% 30.15 in 0.8 mi SE 3.5 mph - N/A Snow Light Snow
9:55 AM 19.4 °F 14.3 °F 15.8 °F 86% 30.15 in 0.8 mi SE 3.5 mph - N/A Snow Light Snow
10:15 AM 19.4 °F 14.3 °F 15.8 °F 86% 30.15 in 1.0 mi SE 3.5 mph - N/A Snow Light Snow
10:35 AM 21.2 °F 16.4 °F 15.8 °F 80% 30.12 in 1.2 mi South 3.5 mph - N/A Snow Light Snow
10:55 AM 21.2 °F 14.9 °F 17.6 °F 86% 30.12 in 1.0 mi SSE 4.6 mph - N/A Snow Light Snow
11:15 AM 21.2 °F 14.9 °F 15.8 °F 80% 30.12 in 3.0 mi SSE 4.6 mph - N/A Snow Light Snow
11:35 AM 21.2 °F 13.6 °F 15.8 °F 80% 30.12 in 4.0 mi South 5.8 mph - N/A Snow Light Snow
11:55 AM 23.0 °F 17.0 °F 15.8 °F 74% 30.11 in 3.0 mi South 4.6 mph - N/A Snow Light Snow
12:15 PM 23.0 °F 17.0 °F 15.8 °F 74% 30.08 in 3.0 mi South 4.6 mph - N/A Snow Light Snow
12:35 PM 23.0 °F 17.0 °F 15.8 °F 74% 30.08 in 4.0 mi South 4.6 mph - N/A Snow Light Snow
12:55 PM 23.0 °F 15.8 °F 15.8 °F 74% 30.05 in 3.0 mi SSW 5.8 mph - N/A Snow Light Snow
1:15 PM 23.0 °F 15.8 °F 15.8 °F 74% 30.04 in 5.0 mi SSW 5.8 mph - N/A Snow Light Snow
1:35 PM 23.0 °F 17.0 °F 15.8 °F 74% 30.03 in 7.0 mi SW 4.6 mph - N/A Snow Light Snow
1:55 PM 23.0 °F 17.0 °F 15.8 °F 74% 30.02 in 7.0 mi SSW 4.6 mph - N/A   Overcast
2:15 PM 23.0 °F 15.8 °F 15.8 °F 74% 30.01 in 10.0 mi SSW 5.8 mph - N/A   Overcast
2:35 PM 23.0 °F 15.8 °F 15.8 °F 74% 30.00 in 10.0 mi WSW 5.8 mph - N/A   Overcast
2:55 PM 23.0 °F 14.7 °F 15.8 °F 74% 30.00 in 10.0 mi SW 6.9 mph - N/A Snow Light Snow
3:15 PM 23.0 °F 17.0 °F 17.6 °F 80% 30.00 in 7.0 mi SSW 4.6 mph - N/A Snow Light Snow
3:35 PM 23.0 °F 13.9 °F 17.6 °F 80% 30.00 in 3.0 mi SW 8.1 mph - N/A Snow Light Snow
3:55 PM 23.0 °F 15.8 °F 17.6 °F 80% 29.99 in 3.0 mi SSW 5.8 mph - N/A Snow Light Snow
4:15 PM 23.0 °F 15.8 °F 17.6 °F 80% 30.01 in 4.0 mi SW 5.8 mph - N/A Snow Light Snow
4:35 PM 23.0 °F 17.0 °F 17.6 °F 80% 30.01 in 5.0 mi SW 4.6 mph - N/A Snow Light Snow
4:55 PM 23.0 °F 14.7 °F 17.6 °F 80% 30.00 in 5.0 mi SW 6.9 mph - N/A Snow Light Snow
5:15 PM 23.0 °F 18.4 °F 17.6 °F 80% 30.00 in 7.0 mi SW 3.5 mph - N/A   Overcast
5:35 PM 23.0 °F 17.0 °F 17.6 °F 80% 30.00 in 10.0 mi SW 4.6 mph - N/A   Overcast
5:55 PM 23.0 °F 15.8 °F 17.6 °F 80% 30.00 in 10.0 mi SW 5.8 mph - N/A   Overcast
6:15 PM 23.0 °F 15.8 °F 17.6 °F 80% 30.01 in 10.0 mi WSW 5.8 mph - N/A   Overcast
6:35 PM 23.0 °F 18.4 °F 17.6 °F 80% 30.01 in 10.0 mi WSW 3.5 mph - N/A   Overcast
6:55 PM 23.0 °F 17.0 °F 17.6 °F 80% 30.02 in 7.0 mi SW 4.6 mph - N/A Snow Light Snow
7:15 PM 23.0 °F 15.8 °F 19.4 °F 86% 30.02 in 5.0 mi SW 5.8 mph - N/A Snow Light Snow
7:35 PM 23.0 °F 15.8 °F 19.4 °F 86% 30.02 in 7.0 mi WSW 5.8 mph - N/A Snow Light Snow
7:55 PM 23.0 °F 15.8 °F 19.4 °F 86% 30.02 in 4.0 mi SW 5.8 mph - N/A Snow Light Snow
8:15 PM 23.0 °F 15.8 °F 19.4 °F 86% 30.03 in 5.0 mi SW 5.8 mph - N/A Snow Light Snow
8:35 PM 23.0 °F 15.8 °F 19.4 °F 86% 30.03 in 7.0 mi SW 5.8 mph 16.1 mph N/A Snow Light Snow
8:55 PM 23.0 °F 15.8 °F 19.4 °F 86% 30.03 in 5.0 mi SW 5.8 mph - N/A Snow Light Snow
9:15 PM 23.0 °F 17.0 °F 19.4 °F 86% 30.03 in 4.0 mi SSW 4.6 mph - N/A Snow Light Snow
9:35 PM 23.0 °F 15.8 °F 19.4 °F 86% 30.03 in 3.0 mi SW 5.8 mph - N/A Snow Light Snow
9:55 PM 24.8 °F 16.9 °F 21.2 °F 86% 30.03 in 4.0 mi SW 6.9 mph - N/A Snow Light Snow
10:15 PM 24.8 °F 20.5 °F 21.2 °F 86% 30.03 in 4.0 mi SW 3.5 mph - N/A Snow Light Snow
10:35 PM 24.8 °F 20.5 °F 21.2 °F 86% 30.03 in 4.0 mi WSW 3.5 mph - N/A Snow Light Snow
10:55 PM 24.8 °F 20.5 °F 21.2 °F 86% 30.03 in 4.0 mi SW 3.5 mph - N/A Snow Light Snow
11:15 PM 24.8 °F - 21.2 °F 86% 30.04 in 3.0 mi Calm Calm - N/A Snow Light Snow
11:35 PM 24.8 °F 20.5 °F 21.2 °F 86% 30.04 in 4.0 mi SSW 3.5 mph - N/A Snow Light Snow
11:55 PM 24.8 °F - 21.2 °F 86% 30.05 in 4.0 mi Calm Calm - N/A Snow Light Snow